Weather History for Coffeyville, KS

Change the Weather History Date:

Thursday, October 11, 2012

  Actual Average Record
Temperature  
Mean Temperature 66 °F -  
Max Temperature 78 °F 71 °F 84 °F (1999)
Min Temperature 55 °F 46 °F 42 °F (1996)
Cooling Degree Days 2    
Growing Degree Days 16 (Base 50)    
Moisture  
Dew Point 50 °F    
Average Humidity 57    
Maximum Humidity 75    
Minimum Humidity 51    
Precipitation  
Precipitation 0.00 in - - ()
Sea Level Pressure  
Sea Level Pressure 30.09 in    
Wind  
Wind Speed 5 mph (SSE)    
Max Wind Speed 17 mph    
Max Gust Speed 21 mph    
Visibility 10 miles    
Events      
Averages and records for this station are not official NWS values.
T = Trace of Precipitation, MM = Missing Value Source: NWS Daily Summary

Daily Weather History Graph

Daily Weather History Graph

Search for Another Location

Airport:

Trip Planner

Search our weather history database for the weather conditions in past years. The results will help you decide how hot, cold, wet, or windy it might be!

Date:

Astronomy

Oct. 11, 2012 Rise Set
Actual Time 7:26 AM CDT 6:50 PM CDT
Civil Twilight 7:00 AM CDT 7:16 PM CDT
Nautical Twilight 6:30 AM CDT 7:46 PM CDT
Astronomical Twilight 6:00 AM CDT 8:16 PM CDT
Moon 3:11 AM CDT (10/11) 4:22 PM CDT (10/11)
Length of Visible Light 12h 15m
Length of Day
11h 23m
Waning Crescent, 18% of the Moon is Illuminated
Oct 11
Waning Crescent
Oct 15
New
Oct 21
First Quarter
Oct 29
Full
Nov 6
Last Quarter

Hourly Weather History & Observations

Time (CDT) Temp. Dew Point Humidity Pressure Visibility Wind Dir Wind Speed Gust Speed Precip Events Conditions
12:52 AM 55.0 °F 39.0 °F 55% 30.14 in 10.0 mi Calm Calm - N/A   Overcast
1:52 AM 57.0 °F 39.9 °F 53% 30.12 in 10.0 mi Calm Calm - N/A   Overcast
2:52 AM 57.0 °F 43.0 °F 59% 30.12 in 10.0 mi Calm Calm - N/A   Overcast
3:20 AM 59.0 °F 41.0 °F 51% 30.12 in 10.0 mi SSE 4.6 mph - N/A   Overcast
3:29 AM 59.0 °F 42.8 °F 55% 30.12 in 10.0 mi Calm Calm - N/A   Overcast
3:36 AM 59.0 °F 42.8 °F 55% 30.12 in 10.0 mi SE 3.5 mph - N/A   Overcast
3:52 AM 59.0 °F 42.1 °F 53% 30.11 in 10.0 mi SE 3.5 mph - N/A   Overcast
4:30 AM 59.0 °F 42.8 °F 55% 30.11 in 10.0 mi SE 4.6 mph - N/A   Overcast
4:52 AM 60.1 °F 42.1 °F 51% 30.10 in 10.0 mi SE 4.6 mph - N/A   Overcast
5:52 AM 60.1 °F 43.0 °F 53% 30.11 in 10.0 mi SSE 6.9 mph - N/A   Overcast
6:24 AM 60.8 °F 42.8 °F 52% 30.11 in 10.0 mi SSE 8.1 mph - N/A   Overcast
6:52 AM 60.1 °F 44.1 °F 55% 30.11 in 10.0 mi SSE 6.9 mph - N/A   Overcast
7:52 AM 60.1 °F 44.1 °F 55% 30.12 in 10.0 mi SSE 8.1 mph - N/A   Overcast
10:52 AM 66.0 °F 50.0 °F 56% 30.13 in 10.0 mi South 12.7 mph - N/A   Overcast
11:52 AM 69.1 °F 53.1 °F 57% 30.11 in 9.0 mi South 13.8 mph - N/A   Mostly Cloudy
12:21 PM 71.6 °F 55.4 °F 57% 30.10 in 8.0 mi SSW 17.3 mph - N/A   Mostly Cloudy
12:52 PM 73.9 °F 55.9 °F 53% 30.08 in 10.0 mi South 15.0 mph - N/A   Partly Cloudy
1:17 PM 73.4 °F 57.2 °F 57% 30.07 in 10.0 mi South 13.8 mph - N/A   Mostly Cloudy
1:52 PM 73.9 °F 57.9 °F 57% 30.04 in 10.0 mi South 12.7 mph 20.7 mph N/A   Overcast
2:52 PM 75.0 °F 59.0 °F 57% 30.02 in 10.0 mi South 15.0 mph 20.7 mph N/A   Overcast
3:52 PM 78.1 °F 61.0 °F 56% 30.01 in 10.0 mi South 15.0 mph - N/A   Mostly Cloudy
4:52 PM 77.0 °F 63.0 °F 62% 30.00 in 10.0 mi South 13.8 mph - N/A   Mostly Cloudy
6:52 PM 75.0 °F 64.0 °F 69% 30.01 in 10.0 mi South 12.7 mph - N/A   Overcast
11:52 PM 71.1 °F 63.0 °F 75% 30.10 in 10.0 mi South 6.9 mph - N/A   Overcast